K1CSF Weather Reports


time (UTC)temp
F
wind
direction
speed
knots
gust
knots
rain 1hr
in
rain 24hr
in
rain mn
in
humidity
%
barometer
mb
20260509131601 49 180 3.5 8.7 0.00 0.00 0.00 50 1014.7
20260509130101 48 196 3.5 7.8 0.00 0.00 0.00 52 1014.9
20260509124606 48 135 0.9 7.0 0.00 0.00 0.00 54 1014.9
20260509123053 46 93 3.5 7.0 0.00 0.00 0.00 55 1015.0
20260509121548 44 137 1.7 2.6 0.00 0.00 0.00 61 1015.0
20260509120058 41 126 0.0 2.6 0.00 0.00 0.00 65 1015.0
20260509114541 41 126 0.0 2.6 0.00 0.00 0.00 64 1015.1
20260509113040 40 114 0.9 2.6 0.00 0.00 0.00 64 1014.9
20260509111539 39 114 0.9 3.5 0.00 0.00 0.00 65 1015.0
20260509110043 38 114 1.7 3.5 0.00 0.00 0.00 66 1015.0
20260509104537 37 114 1.7 3.5 0.00 0.00 0.00 67 1014.9
20260509103037 37 102 1.7 3.5 0.00 0.00 0.00 67 1014.8
20260509101545 37 102 1.7 3.5 0.00 0.00 0.00 67 1014.7
20260509100039 37 102 1.7 5.2 0.00 0.00 0.00 67 1014.5
20260509094532 37 84 2.6 5.2 0.00 0.00 0.00 67 1014.3
20260509093030 36 117 1.7 3.5 0.00 0.00 0.00 67 1014.1
20260509091532 37 117 0.9 3.5 0.00 0.00 0.00 65 1014.1
20260509090024 38 117 0.9 2.6 0.00 0.00 0.00 63 1014.0
20260509084528 38 117 1.7 2.6 0.00 0.00 0.00 63 1013.9
20260509083024 38 117 1.7 2.6 0.00 0.00 0.00 63 1013.9
20260509081522 38 117 1.7 3.5 0.00 0.00 0.00 63 1014.1
20260509080020 38 117 0.9 1.7 0.00 0.00 0.00 62 1014.2
20260509074520 38 117 1.7 2.6 0.00 0.00 0.00 63 1014.2
20260509073028 38 117 0.9 2.6 0.00 0.00 0.00 62 1014.2
20260509071516 38 117 1.7 2.6 0.00 0.00 0.00 61 1014.2
20260509070016 38 117 1.7 2.6 0.00 0.00 0.00 61 1014.2
20260509064514 39 117 1.7 3.5 0.00 0.00 0.00 61 1014.1
20260509063014 39 126 1.7 3.5 0.00 0.00 0.00 61 1014.2
20260509061513 39 125 0.9 2.6 0.00 0.00 0.00 61 1014.2
20260509060027 39 126 1.7 3.5 0.00 0.00 0.00 61 1014.3
20260509054510 39 111 1.7 2.6 0.00 0.00 0.00 60 1014.3
20260509053010 39 111 0.9 2.6 0.00 0.00 0.00 59 1014.2
20260509051508 40 111 1.7 2.6 0.00 0.00 0.00 59 1014.1
20260509050006 40 111 0.9 2.6 0.00 0.00 0.00 58 1014.1
20260509044504 40 111 0.9 3.5 0.00 0.00 0.00 59 1014.2
20260509043003 40 109 1.7 3.5 0.00 0.00 0.00 60 1014.1
20260509041502 40 98 1.7 3.5 0.00 0.00 0.00 59 1014.0
20260509040126 41 96 1.7 3.5 0.00 0.00 0.00 59 1014.0
20260509034601 41 95 1.7 3.5 0.00 0.00 0.00 58 1013.9
20260509033055 41 95 1.7 3.5 0.00 0.00 0.00 58 1013.7
20260509031558 41 90 0.9 3.5 0.00 0.00 0.00 57 1013.6
20260509030057 41 52 1.7 3.5 0.00 0.00 0.00 56 1013.6
20260509024556 41 39 1.7 2.6 0.00 0.00 0.00 57 1013.5
20260509023053 42 39 1.7 2.6 0.00 0.00 0.00 55 1013.6
20260509021552 42 39 0.9 2.6 0.00 0.00 0.00 55 1013.4
20260509020050 42 39 0.9 2.6 0.00 0.00 0.00 54 1013.3
20260509014549 43 39 0.9 1.7 0.00 0.00 0.00 53 1013.1
20260509013051 43 26 1.7 2.6 0.00 0.00 0.00 52 1013.0
20260509011557 43 26 0.9 1.7 0.00 0.00 0.00 51 1012.8
20260509010048 43 26 1.7 3.5 0.00 0.00 0.00 55 1012.6
20260509004603 42 331 0.9 2.6 0.00 0.00 0.00 55 1012.4
20260509003044 42 331 1.7 2.6 0.00 0.00 0.00 56 1012.3
20260509001541 43 304 1.7 2.6 0.00 0.00 0.00 56 1012.2
20260509000040 44 284 0.9 2.6 0.00 0.00 0.00 54 1012.2
20260508234539 44 284 0.0 1.7 0.00 0.00 0.00 54 1012.2
20260508233040 45 284 0.9 2.6 0.00 0.00 0.00 52 1012.1
20260508231538 45 275 0.9 2.6 0.00 0.00 0.00 50 1011.9
20260508230038 46 275 0.9 2.6 0.00 0.00 0.00 49 1011.9
20260508224537 46 265 1.7 7.0 0.00 0.00 0.00 48 1012.0
20260508223042 46 304 3.5 8.7 0.00 0.00 0.00 47 1011.8
20260508221535 46 333 2.6 6.1 0.00 0.00 0.00 47 1011.9
20260508220035 46 329 2.6 7.0 0.00 0.00 0.00 46 1011.8
20260508214538 46 303 3.5 7.8 0.00 0.00 0.00 47 1011.9
20260508213035 46 265 3.5 9.6 0.00 0.00 0.00 49 1011.9
20260508211534 46 309 5.2 11.3 0.00 0.00 0.00 48 1011.8
20260508210033 46 277 3.5 10.4 0.00 0.00 0.00 50 1011.6
20260508204534 46 276 3.5 10.4 0.00 0.00 0.00 50 1011.5
20260508203030 45 338 5.2 11.3 0.00 0.00 0.00 50 1011.4
20260508201530 46 190 2.6 13.9 0.00 0.00 0.00 50 1011.4
20260508200030 46 248 1.7 7.8 0.00 0.00 0.00 50 1011.3
20260508194529 46 263 4.3 11.3 0.00 0.00 0.00 49 1011.3
20260508193028 46 259 3.5 9.6 0.00 0.00 0.00 50 1011.4
20260508191528 45 257 3.5 8.7 0.00 0.00 0.00 52 1011.3
20260508190027 45 322 6.1 11.3 0.00 0.00 0.00 51 1011.5
20260508184525 44 260 4.3 10.4 0.00 0.00 0.00 53 1011.4
20260508183021 44 279 4.3 9.6 0.00 0.00 0.00 53 1011.5
20260508181521 44 270 4.3 9.6 0.00 0.00 0.00 54 1011.6
20260508180024 44 288 4.3 10.4 0.00 0.00 0.00 54 1011.5
20260508174518 44 173 7.0 14.8 0.00 0.00 0.00 53 1011.5
20260508173018 44 204 6.1 13.0 0.00 0.00 0.00 52 1011.4
20260508171517 44 285 6.1 12.2 0.00 0.00 0.00 54 1011.3
20260508170018 45 250 6.1 14.8 0.00 0.00 0.00 52 1011.3
20260508164515 45 248 6.1 12.2 0.00 0.00 0.00 52 1011.3
20260508163014 44 329 7.0 13.9 0.00 0.00 0.00 55 1011.4
20260508161514 44 269 8.7 12.2 0.00 0.00 0.00 53 1011.3
20260508160025 45 284 5.2 12.2 0.00 0.00 0.00 58 1011.2
20260508154511 44 257 6.1 12.2 0.00 0.00 0.00 56 1011.2
20260508153008 44 282 5.2 10.4 0.00 0.00 0.00 59 1011.1
20260508151506 42 244 2.6 13.9 0.00 0.00 0.00 65 1011.2
20260508150003 42 259 4.3 9.6 0.00 0.00 0.00 66 1011.3
20260508144501 41 271 5.2 8.7 0.00 0.00 0.00 68 1011.4
20260508143110 41 211 3.5 7.8 0.00 0.00 0.00 70 1011.3
20260508141610 41 257 2.6 7.0 0.00 0.00 0.00 71 1011.3
20260508140059 41 225 5.2 9.6 0.00 0.00 0.00 71 1011.3
20260508134559 41 315 2.6 10.4 0.00 0.00 0.00 72 1011.3
20260508133100 41 288 5.2 9.6 0.00 0.00 0.00 70 1011.3